Voltar ao catálogo

NOAA 12 DEB

AtivoSSO
NORAD 37832·DEBRIS·🇺🇸 United States

Lançado May 14, 1991 de Vandenberg Space Force Base

Loading…

Próximas Passagens (próximas 24 horas)

TLE

AtualizadoSource: Space-Track

Época: Sep 14, 2026, 10:26 UTC

1 37832U 91032E   26257.43505373  .00004151  00000-0  84323-3 0  9994
2 37832  98.2678 318.1391 0007897 171.3599 199.5774 14.61649404785851

Acompanhe NOAA 12 DEB em tempo real com AllMySat

Download on the App Store